Tracking 19831 objects as of 23-Aug-2019
HD Live streaming from Space Station
objects crossing your sky now

COSMOS 2251 DEB

Track COSMOS 2251 DEB now!
10-day predictions


NORAD ID: 38054
Int'l Code: 1993-036BRL
Perigee: 783.6 km
Apogee: 1,377.6 km
Inclination: 74.0 °
Period: 106.7 minutes
Semi major axis: 7451 km
RCS: 0.0181 m2 (small)
Launch date: June 16, 1993
Source: Commonwealth of Independent States (former USSR) (CIS)
Launch site: PLESETSK MISSILE AND SPACE COMPLEX (PKMTR)

Note: This is SATELLITE DEBRIS
aabbcc
Your satellite tracking list
Your tracking list is empty




NASA's NSSDC Master Catalog

Two Line Element Set (TLE):
1 38054U 93036BRL 19234.84304484 -.00000074 +00000-0 -53237-4 0  9992
2 38054 073.9558 018.8432 0398623 083.1560 066.3245 13.49670306360081
Source of the keplerian elements: AFSPC